Year,Month,Day,Hour,Minute,Value (Times are PST for temperature in C)
2019,03,07,00,00,2.70
2019,03,07,00,01,2.70
2019,03,07,00,02,2.70
2019,03,07,00,03,2.70
2019,03,07,00,04,2.70
2019,03,07,00,05,2.70
2019,03,07,00,06,2.70
2019,03,07,00,07,2.60
2019,03,07,00,08,2.60
2019,03,07,00,09,2.60
2019,03,07,00,10,2.60
2019,03,07,00,11,2.50
2019,03,07,00,12,2.50
2019,03,07,00,13,2.40
2019,03,07,00,14,2.40
2019,03,07,00,15,2.40
2019,03,07,00,16,2.40
2019,03,07,00,17,2.40
2019,03,07,00,18,2.40
2019,03,07,00,19,2.40
2019,03,07,00,20,2.40
2019,03,07,00,21,2.40
2019,03,07,00,22,2.40
2019,03,07,00,23,2.40
2019,03,07,00,24,2.40
2019,03,07,00,25,2.40
2019,03,07,00,26,2.40
2019,03,07,00,27,2.40
2019,03,07,00,28,2.50
2019,03,07,00,29,2.50
2019,03,07,00,30,2.60
2019,03,07,00,31,2.70
2019,03,07,00,32,2.70
2019,03,07,00,33,2.70
2019,03,07,00,34,2.70
2019,03,07,00,35,2.70
2019,03,07,00,36,2.80
2019,03,07,00,37,2.80
2019,03,07,00,38,2.80
2019,03,07,00,39,2.80
2019,03,07,00,40,2.80
2019,03,07,00,41,2.80
2019,03,07,00,42,2.90
2019,03,07,00,43,2.90
2019,03,07,00,44,2.90
2019,03,07,00,45,2.90
2019,03,07,00,46,2.90
2019,03,07,00,47,2.90
2019,03,07,00,48,2.90
2019,03,07,00,49,2.90
2019,03,07,00,50,2.90
2019,03,07,00,51,2.90
2019,03,07,00,52,2.90
2019,03,07,00,53,2.90
2019,03,07,00,54,2.90
2019,03,07,00,55,2.90
2019,03,07,00,56,2.90
2019,03,07,00,57,2.90
2019,03,07,00,58,2.90
2019,03,07,00,59,2.90
2019,03,07,01,00,2.90
2019,03,07,01,01,2.90
2019,03,07,01,02,2.90
2019,03,07,01,03,2.90
2019,03,07,01,04,2.90
2019,03,07,01,05,2.90
2019,03,07,01,06,2.90
2019,03,07,01,07,2.90
2019,03,07,01,08,2.90
2019,03,07,01,09,2.90
2019,03,07,01,10,2.90
2019,03,07,01,11,2.90
2019,03,07,01,12,2.90
2019,03,07,01,13,2.90
2019,03,07,01,14,2.90
2019,03,07,01,15,2.90
2019,03,07,01,16,2.90
2019,03,07,01,17,2.90
2019,03,07,01,18,2.90
2019,03,07,01,19,2.80
2019,03,07,01,20,2.80
2019,03,07,01,21,2.80
2019,03,07,01,22,2.80
2019,03,07,01,23,2.80
2019,03,07,01,24,2.80
2019,03,07,01,25,2.80
2019,03,07,01,26,2.80
2019,03,07,01,27,2.70
2019,03,07,01,28,2.70
2019,03,07,01,29,2.70
2019,03,07,01,30,2.70
2019,03,07,01,31,2.70
2019,03,07,01,32,2.70
2019,03,07,01,33,2.70
2019,03,07,01,34,2.70
2019,03,07,01,35,2.70
2019,03,07,01,36,2.70
2019,03,07,01,37,2.70
2019,03,07,01,38,2.70
2019,03,07,01,39,2.70
2019,03,07,01,40,2.70
2019,03,07,01,41,2.70
2019,03,07,01,42,2.70
2019,03,07,01,43,2.70
2019,03,07,01,44,2.60
2019,03,07,01,45,2.60
2019,03,07,01,46,2.60
2019,03,07,01,47,2.50
2019,03,07,01,48,2.50
2019,03,07,01,49,2.50
2019,03,07,01,50,2.50
2019,03,07,01,51,2.50
2019,03,07,01,52,2.40
2019,03,07,01,53,2.40
2019,03,07,01,54,2.40
2019,03,07,01,55,2.40
2019,03,07,01,56,2.40
2019,03,07,01,57,2.40
2019,03,07,01,58,2.40
2019,03,07,01,59,2.40
2019,03,07,02,00,2.40
2019,03,07,02,01,2.40
2019,03,07,02,02,2.40
2019,03,07,02,03,2.40
2019,03,07,02,04,2.40
2019,03,07,02,05,2.50
2019,03,07,02,06,2.50
2019,03,07,02,07,2.50
2019,03,07,02,08,2.60
2019,03,07,02,09,2.60
2019,03,07,02,10,2.60
2019,03,07,02,11,2.60
2019,03,07,02,12,2.60
2019,03,07,02,13,2.60
2019,03,07,02,14,2.60
2019,03,07,02,15,2.60
2019,03,07,02,16,2.60
2019,03,07,02,17,2.60
2019,03,07,02,18,2.60
2019,03,07,02,19,2.60
2019,03,07,02,20,2.50
2019,03,07,02,21,2.50
2019,03,07,02,22,2.50
2019,03,07,02,23,2.50
2019,03,07,02,24,2.50
2019,03,07,02,25,2.50
2019,03,07,02,26,2.50
2019,03,07,02,27,2.50
2019,03,07,02,28,2.50
2019,03,07,02,29,2.50
2019,03,07,02,30,2.50
2019,03,07,02,31,2.50
2019,03,07,02,32,2.50
2019,03,07,02,33,2.50
2019,03,07,02,34,2.50
2019,03,07,02,35,2.60
2019,03,07,02,36,2.60
2019,03,07,02,37,2.60
2019,03,07,02,38,2.60
2019,03,07,02,39,2.60
2019,03,07,02,40,2.60
2019,03,07,02,41,2.70
2019,03,07,02,42,2.70
2019,03,07,02,43,2.70
2019,03,07,02,44,2.70
2019,03,07,02,45,2.70
2019,03,07,02,46,2.70
2019,03,07,02,47,2.70
2019,03,07,02,48,2.70
2019,03,07,02,49,2.70
2019,03,07,02,50,2.70
2019,03,07,02,51,2.70
2019,03,07,02,52,2.70
2019,03,07,02,53,2.70
2019,03,07,02,54,2.70
2019,03,07,02,55,2.70
2019,03,07,02,56,2.70
2019,03,07,02,57,2.70
2019,03,07,02,58,2.70
2019,03,07,02,59,2.70
2019,03,07,03,00,2.70
2019,03,07,03,01,2.70
2019,03,07,03,02,2.70
2019,03,07,03,03,2.70
2019,03,07,03,04,2.70
2019,03,07,03,05,2.70
2019,03,07,03,06,2.70
2019,03,07,03,07,2.70
2019,03,07,03,08,2.70
2019,03,07,03,09,2.70
2019,03,07,03,10,2.70
2019,03,07,03,11,2.70
2019,03,07,03,12,2.70
2019,03,07,03,13,2.70
2019,03,07,03,14,2.70
2019,03,07,03,15,2.70
2019,03,07,03,16,2.70
2019,03,07,03,17,2.70
2019,03,07,03,18,2.70
2019,03,07,03,19,2.70
2019,03,07,03,20,2.70
2019,03,07,03,21,2.70
2019,03,07,03,22,2.70
2019,03,07,03,23,2.70
2019,03,07,03,24,2.70
2019,03,07,03,25,2.70
2019,03,07,03,26,2.70
2019,03,07,03,27,2.70
2019,03,07,03,28,2.70
2019,03,07,03,29,2.70
2019,03,07,03,30,2.70
2019,03,07,03,31,2.70
2019,03,07,03,32,2.70
2019,03,07,03,33,2.60
2019,03,07,03,34,2.60
2019,03,07,03,35,2.60
2019,03,07,03,36,2.60
2019,03,07,03,37,2.60
2019,03,07,03,38,2.60
2019,03,07,03,39,2.60
2019,03,07,03,40,2.60
2019,03,07,03,41,2.60
2019,03,07,03,42,2.70
2019,03,07,03,43,2.70
2019,03,07,03,44,2.70
2019,03,07,03,45,2.70
2019,03,07,03,46,2.70
2019,03,07,03,47,2.70
2019,03,07,03,48,2.70
2019,03,07,03,49,2.70
2019,03,07,03,50,2.70
2019,03,07,03,51,2.70
2019,03,07,03,52,2.70
2019,03,07,03,53,2.70
2019,03,07,03,54,2.70
2019,03,07,03,55,2.70
2019,03,07,03,56,2.70
2019,03,07,03,57,2.80
2019,03,07,03,58,2.80
2019,03,07,03,59,2.80
2019,03,07,04,00,2.80
2019,03,07,04,01,2.80
2019,03,07,04,02,2.80
2019,03,07,04,03,2.80
2019,03,07,04,04,2.80
2019,03,07,04,05,2.80
2019,03,07,04,06,2.80
2019,03,07,04,07,2.80
2019,03,07,04,08,2.80
2019,03,07,04,09,2.80
2019,03,07,04,10,2.80
2019,03,07,04,11,2.80
2019,03,07,04,12,2.80
2019,03,07,04,13,2.70
2019,03,07,04,14,2.70
2019,03,07,04,15,2.70
2019,03,07,04,16,2.70
2019,03,07,04,17,2.70
2019,03,07,04,18,2.70
2019,03,07,04,19,2.70
2019,03,07,04,20,2.70
2019,03,07,04,21,2.70
2019,03,07,04,22,2.70
2019,03,07,04,23,2.70
2019,03,07,04,24,2.70
2019,03,07,04,25,2.70
2019,03,07,04,26,2.70
2019,03,07,04,27,2.70
2019,03,07,04,28,2.80
2019,03,07,04,29,2.80
2019,03,07,04,30,2.80
2019,03,07,04,31,2.80
2019,03,07,04,32,2.80
2019,03,07,04,33,2.80
2019,03,07,04,34,2.80
2019,03,07,04,35,2.80
2019,03,07,04,36,2.80
2019,03,07,04,37,2.80
2019,03,07,04,38,2.80
2019,03,07,04,39,2.80
2019,03,07,04,40,2.80
2019,03,07,04,41,2.80
2019,03,07,04,42,2.80
2019,03,07,04,43,2.80
2019,03,07,04,44,2.80
2019,03,07,04,45,2.80
2019,03,07,04,46,2.80
2019,03,07,04,47,2.80
2019,03,07,04,48,2.80
2019,03,07,04,49,2.80
2019,03,07,04,50,2.80
2019,03,07,04,51,2.80
2019,03,07,04,52,2.90
2019,03,07,04,53,2.90
2019,03,07,04,54,2.90
2019,03,07,04,55,2.90
2019,03,07,04,56,3.00
2019,03,07,04,57,3.00
2019,03,07,04,58,3.10
2019,03,07,04,59,3.10
2019,03,07,05,00,3.10
2019,03,07,05,01,3.10
2019,03,07,05,02,3.10
2019,03,07,05,03,3.20
2019,03,07,05,04,3.20
2019,03,07,05,05,3.20
2019,03,07,05,06,3.20
2019,03,07,05,07,3.20
2019,03,07,05,08,3.20
2019,03,07,05,09,3.20
2019,03,07,05,10,3.20
2019,03,07,05,11,3.20
2019,03,07,05,12,3.20
2019,03,07,05,13,3.20
2019,03,07,05,14,3.20
2019,03,07,05,15,3.20
2019,03,07,05,16,3.20
2019,03,07,05,17,3.10
2019,03,07,05,18,3.10
2019,03,07,05,19,3.10
2019,03,07,05,20,3.10
2019,03,07,05,21,3.10
2019,03,07,05,22,3.10
2019,03,07,05,23,3.10
2019,03,07,05,24,3.10
2019,03,07,05,25,3.10
2019,03,07,05,26,3.10
2019,03,07,05,27,3.20
2019,03,07,05,28,3.20
2019,03,07,05,29,3.20
2019,03,07,05,30,3.20
2019,03,07,05,31,3.20
2019,03,07,05,32,3.20
2019,03,07,05,33,3.20
2019,03,07,05,34,3.20
2019,03,07,05,35,3.20
2019,03,07,05,36,3.20
2019,03,07,05,37,3.20
2019,03,07,05,38,3.30
2019,03,07,05,39,3.30
2019,03,07,05,40,3.30
2019,03,07,05,41,3.30
2019,03,07,05,42,3.30
2019,03,07,05,43,3.30
2019,03,07,05,44,3.30
2019,03,07,05,45,3.30
2019,03,07,05,46,3.30
2019,03,07,05,47,3.30
2019,03,07,05,48,3.30
2019,03,07,05,49,3.30
2019,03,07,05,50,3.30
2019,03,07,05,51,3.30
2019,03,07,05,52,3.30
2019,03,07,05,53,3.30
2019,03,07,05,54,3.30
2019,03,07,05,55,3.30
2019,03,07,05,56,3.30
2019,03,07,05,57,3.30
2019,03,07,05,58,3.30
2019,03,07,05,59,3.30
2019,03,07,06,00,3.30
2019,03,07,06,01,3.30
2019,03,07,06,02,3.30
2019,03,07,06,03,3.30
2019,03,07,06,04,3.30
2019,03,07,06,05,3.30
2019,03,07,06,06,3.30
2019,03,07,06,07,3.30
2019,03,07,06,08,3.30
2019,03,07,06,09,3.30
2019,03,07,06,10,3.30
2019,03,07,06,11,3.30
2019,03,07,06,12,3.20
2019,03,07,06,13,3.20
2019,03,07,06,14,3.20
2019,03,07,06,15,3.20
2019,03,07,06,16,3.20
2019,03,07,06,17,3.20
2019,03,07,06,18,3.20
2019,03,07,06,19,3.10
2019,03,07,06,20,3.10
2019,03,07,06,21,3.10
2019,03,07,06,22,3.10
2019,03,07,06,23,3.10
2019,03,07,06,24,3.10
2019,03,07,06,25,3.00
2019,03,07,06,26,3.00
2019,03,07,06,27,3.00
2019,03,07,06,28,3.00
2019,03,07,06,29,2.90
2019,03,07,06,30,2.90
2019,03,07,06,31,2.90
2019,03,07,06,32,2.90
2019,03,07,06,33,2.90
2019,03,07,06,34,2.90
2019,03,07,06,35,2.90
2019,03,07,06,36,2.90
2019,03,07,06,37,2.90
2019,03,07,06,38,3.00
2019,03,07,06,39,3.00
2019,03,07,06,40,3.00
2019,03,07,06,41,3.10
2019,03,07,06,42,3.10
2019,03,07,06,43,3.10
2019,03,07,06,44,3.20
2019,03,07,06,45,3.20
2019,03,07,06,46,3.20
2019,03,07,06,47,3.20
2019,03,07,06,48,3.30
2019,03,07,06,49,3.30
2019,03,07,06,50,3.30
2019,03,07,06,51,3.30
2019,03,07,06,52,3.30
2019,03,07,06,53,3.30
2019,03,07,06,54,3.40
2019,03,07,06,55,3.40
2019,03,07,06,56,3.40
2019,03,07,06,57,3.40
2019,03,07,06,58,3.40
2019,03,07,06,59,3.40
2019,03,07,07,00,3.40
2019,03,07,07,01,3.40
2019,03,07,07,02,3.40
2019,03,07,07,03,3.40
2019,03,07,07,04,3.40
2019,03,07,07,05,3.40
2019,03,07,07,06,3.40
2019,03,07,07,07,3.40
2019,03,07,07,08,3.40
2019,03,07,07,09,3.40
2019,03,07,07,10,3.40
2019,03,07,07,11,3.40
2019,03,07,07,12,3.40
2019,03,07,07,13,3.40
2019,03,07,07,14,3.40
2019,03,07,07,15,3.40
2019,03,07,07,16,3.40
2019,03,07,07,17,3.40
2019,03,07,07,18,3.40
2019,03,07,07,19,3.30
2019,03,07,07,20,3.30
2019,03,07,07,21,3.30
2019,03,07,07,22,3.30
2019,03,07,07,23,3.30
2019,03,07,07,24,3.30
2019,03,07,07,25,3.20
2019,03,07,07,26,3.20
2019,03,07,07,27,3.20
2019,03,07,07,28,3.20
2019,03,07,07,29,3.10
2019,03,07,07,30,3.00
2019,03,07,07,31,3.00
2019,03,07,07,32,3.00
2019,03,07,07,33,2.90
2019,03,07,07,34,2.90
2019,03,07,07,35,2.80
2019,03,07,07,36,2.80
2019,03,07,07,37,2.80
2019,03,07,07,38,2.80
2019,03,07,07,39,2.70
2019,03,07,07,40,2.70
2019,03,07,07,41,2.70
2019,03,07,07,42,2.70
2019,03,07,07,43,2.70
2019,03,07,07,44,2.70
2019,03,07,07,45,2.60
2019,03,07,07,46,2.60
2019,03,07,07,47,2.60
2019,03,07,07,48,2.60
2019,03,07,07,49,2.60
2019,03,07,07,50,2.60
2019,03,07,07,51,2.60
2019,03,07,07,52,2.70
2019,03,07,07,53,2.70
2019,03,07,07,54,2.70
2019,03,07,07,55,2.70
2019,03,07,07,56,2.70
2019,03,07,07,57,2.70
2019,03,07,07,58,2.70
2019,03,07,07,59,2.70
2019,03,07,08,00,2.70
2019,03,07,08,01,2.70
2019,03,07,08,02,2.70
2019,03,07,08,03,2.70
2019,03,07,08,04,2.70
2019,03,07,08,05,2.70
2019,03,07,08,06,2.70
2019,03,07,08,07,2.70
2019,03,07,08,08,2.80
2019,03,07,08,09,2.80
2019,03,07,08,10,2.80
2019,03,07,08,11,2.80
2019,03,07,08,12,2.80
2019,03,07,08,13,2.80
2019,03,07,08,14,2.80
2019,03,07,08,15,2.90
2019,03,07,08,16,2.90
2019,03,07,08,17,2.90
2019,03,07,08,18,2.90
2019,03,07,08,19,3.00
2019,03,07,08,20,3.00
2019,03,07,08,21,3.10
2019,03,07,08,22,3.10
2019,03,07,08,23,3.20
2019,03,07,08,24,3.20
2019,03,07,08,25,3.30
2019,03,07,08,26,3.30
2019,03,07,08,27,3.30
2019,03,07,08,28,3.30
2019,03,07,08,29,3.40
2019,03,07,08,30,3.40
2019,03,07,08,31,3.40
2019,03,07,08,32,3.40
2019,03,07,08,33,3.50
2019,03,07,08,34,3.50
2019,03,07,08,35,3.50
2019,03,07,08,36,3.50
2019,03,07,08,37,3.60
2019,03,07,08,38,3.60
2019,03,07,08,39,3.60
2019,03,07,08,40,3.60
2019,03,07,08,41,3.60
2019,03,07,08,42,3.50
2019,03,07,08,43,3.50
2019,03,07,08,44,3.50
2019,03,07,08,45,3.50
2019,03,07,08,46,3.40
2019,03,07,08,47,3.40
2019,03,07,08,48,3.40
2019,03,07,08,49,3.40
2019,03,07,08,50,3.40
2019,03,07,08,51,3.40
2019,03,07,08,52,3.50
2019,03,07,08,53,3.50
2019,03,07,08,54,3.50
2019,03,07,08,55,3.50
2019,03,07,08,56,3.50
2019,03,07,08,57,3.50
2019,03,07,08,58,3.60
2019,03,07,08,59,3.60
2019,03,07,09,00,3.60
2019,03,07,09,01,3.70
2019,03,07,09,02,3.70
2019,03,07,09,03,3.80
2019,03,07,09,04,3.80
2019,03,07,09,05,3.90
2019,03,07,09,06,3.90
2019,03,07,09,07,3.90
2019,03,07,09,08,4.00
2019,03,07,09,09,4.10
2019,03,07,09,10,4.10
2019,03,07,09,11,4.20
2019,03,07,09,12,4.20
2019,03,07,09,13,4.30
2019,03,07,09,14,4.30
2019,03,07,09,15,4.30
2019,03,07,09,16,4.30
2019,03,07,09,17,4.30
2019,03,07,09,18,4.40
2019,03,07,09,19,4.40
2019,03,07,09,20,4.40
2019,03,07,09,21,4.40
2019,03,07,09,22,4.50
2019,03,07,09,23,4.50
2019,03,07,09,24,4.50
2019,03,07,09,25,4.50
2019,03,07,09,26,4.50
2019,03,07,09,27,4.50
2019,03,07,09,28,4.60
2019,03,07,09,29,4.60
2019,03,07,09,30,4.60
2019,03,07,09,31,4.60
2019,03,07,09,32,4.60
2019,03,07,09,33,4.60
2019,03,07,09,34,4.70
2019,03,07,09,35,4.70
2019,03,07,09,36,4.70
2019,03,07,09,37,4.60
2019,03,07,09,38,4.60
2019,03,07,09,39,4.60
2019,03,07,09,40,4.60
2019,03,07,09,41,4.60
2019,03,07,09,42,4.60
2019,03,07,09,43,4.70
2019,03,07,09,44,4.70
2019,03,07,09,45,4.80
2019,03,07,09,46,4.80
2019,03,07,09,47,4.80
2019,03,07,09,48,4.90
2019,03,07,09,49,4.90
2019,03,07,09,50,4.90
2019,03,07,09,51,4.90
2019,03,07,09,52,4.90
2019,03,07,09,53,5.00
2019,03,07,09,54,5.10
2019,03,07,09,55,5.20
2019,03,07,09,56,5.30
2019,03,07,09,57,5.30
2019,03,07,09,58,5.40
2019,03,07,09,59,5.50
2019,03,07,10,00,5.60
2019,03,07,10,01,5.70
2019,03,07,10,02,5.80
2019,03,07,10,03,5.80
2019,03,07,10,04,5.80
2019,03,07,10,05,5.80
2019,03,07,10,06,5.80
2019,03,07,10,07,5.80
2019,03,07,10,08,5.80
2019,03,07,10,09,5.90
2019,03,07,10,10,5.90
2019,03,07,10,11,5.90
2019,03,07,10,12,6.00
2019,03,07,10,13,6.00
2019,03,07,10,14,6.00
2019,03,07,10,15,6.10
2019,03,07,10,16,6.20
2019,03,07,10,17,6.20
2019,03,07,10,18,6.30
2019,03,07,10,19,6.30
2019,03,07,10,20,6.20
2019,03,07,10,21,6.10
2019,03,07,10,22,6.10
2019,03,07,10,23,6.10
2019,03,07,10,24,6.00
2019,03,07,10,25,6.00
2019,03,07,10,26,5.90
2019,03,07,10,27,5.90
2019,03,07,10,28,5.80
2019,03,07,10,29,5.70
2019,03,07,10,30,5.70
2019,03,07,10,31,5.60
2019,03,07,10,32,5.60
2019,03,07,10,33,5.50
2019,03,07,10,34,5.50
2019,03,07,10,35,5.50
2019,03,07,10,36,5.40
2019,03,07,10,37,5.40
2019,03,07,10,38,5.40
2019,03,07,10,39,5.40
2019,03,07,10,40,5.30
2019,03,07,10,41,5.30
2019,03,07,10,42,5.30
2019,03,07,10,43,5.40
2019,03,07,10,44,5.40
2019,03,07,10,45,5.50
2019,03,07,10,46,5.40
2019,03,07,10,47,5.40
2019,03,07,10,48,5.40
2019,03,07,10,49,5.40
2019,03,07,10,50,5.40
2019,03,07,10,51,5.40
2019,03,07,10,52,5.40
2019,03,07,10,53,5.50
2019,03,07,10,54,5.50
2019,03,07,10,55,5.60
2019,03,07,10,56,5.60
2019,03,07,10,57,5.60
2019,03,07,10,58,5.60
2019,03,07,10,59,5.50
2019,03,07,11,00,5.40
2019,03,07,11,01,5.40
2019,03,07,11,02,5.50
2019,03,07,11,03,5.60
2019,03,07,11,04,5.50
2019,03,07,11,05,5.50
2019,03,07,11,06,5.50
2019,03,07,11,07,5.60
2019,03,07,11,08,5.60
2019,03,07,11,09,5.70
2019,03,07,11,10,5.70
2019,03,07,11,11,5.70
2019,03,07,11,12,5.60
2019,03,07,11,13,5.60
2019,03,07,11,14,5.60
2019,03,07,11,15,5.60
2019,03,07,11,16,5.60
2019,03,07,11,17,5.70
2019,03,07,11,18,5.70
2019,03,07,11,19,5.80
2019,03,07,11,20,5.90
2019,03,07,11,21,5.90
2019,03,07,11,22,6.00
2019,03,07,11,23,6.10
2019,03,07,11,24,6.10
2019,03,07,11,25,6.20
2019,03,07,11,26,6.20
2019,03,07,11,27,6.20
2019,03,07,11,28,6.20
2019,03,07,11,29,6.30
2019,03,07,11,30,6.40
2019,03,07,11,31,6.40
2019,03,07,11,32,6.40
2019,03,07,11,33,6.40
2019,03,07,11,34,6.40
2019,03,07,11,35,6.40
2019,03,07,11,36,6.40
2019,03,07,11,37,6.40
2019,03,07,11,38,6.40
2019,03,07,11,39,6.40
2019,03,07,11,40,6.40
2019,03,07,11,41,6.40
2019,03,07,11,42,6.40
2019,03,07,11,43,6.30
2019,03,07,11,44,6.30
2019,03,07,11,45,6.40
2019,03,07,11,46,6.40
2019,03,07,11,47,6.50
2019,03,07,11,48,6.50
2019,03,07,11,49,6.60
2019,03,07,11,50,6.60
2019,03,07,11,51,6.70
2019,03,07,11,52,6.80
2019,03,07,11,53,6.90
2019,03,07,11,54,6.90
2019,03,07,11,55,7.00
2019,03,07,11,56,7.10
2019,03,07,11,57,7.10
2019,03,07,11,58,7.20
2019,03,07,11,59,7.20
2019,03,07,12,00,7.20
2019,03,07,12,01,7.10
2019,03,07,12,02,7.10
2019,03,07,12,03,7.00
2019,03,07,12,04,7.00
2019,03,07,12,05,7.00
2019,03,07,12,06,6.90
2019,03,07,12,07,6.90
2019,03,07,12,08,6.90
2019,03,07,12,09,6.90
2019,03,07,12,10,6.90
2019,03,07,12,11,7.00
2019,03,07,12,12,7.10
2019,03,07,12,13,7.10
2019,03,07,12,14,7.20
2019,03,07,12,15,7.30
2019,03,07,12,16,7.30
2019,03,07,12,17,7.40
2019,03,07,12,18,7.40
2019,03,07,12,19,7.30
2019,03,07,12,20,7.30
2019,03,07,12,21,7.30
2019,03,07,12,22,7.30
2019,03,07,12,23,7.30
2019,03,07,12,24,7.30
2019,03,07,12,25,7.30
2019,03,07,12,26,7.30
2019,03,07,12,27,7.30
2019,03,07,12,28,7.30
2019,03,07,12,29,7.30
2019,03,07,12,30,7.30
2019,03,07,12,31,7.30
2019,03,07,12,32,7.30
2019,03,07,12,33,7.40
2019,03,07,12,34,7.40
2019,03,07,12,35,7.50
2019,03,07,12,36,7.50
2019,03,07,12,37,7.50
2019,03,07,12,38,7.60
2019,03,07,12,39,7.70
2019,03,07,12,40,7.80
2019,03,07,12,41,7.90
2019,03,07,12,42,7.90
2019,03,07,12,43,7.90
2019,03,07,12,44,8.00
2019,03,07,12,45,8.00
2019,03,07,12,46,8.10
2019,03,07,12,47,8.10
2019,03,07,12,48,8.10
2019,03,07,12,49,8.20
2019,03,07,12,50,8.20
2019,03,07,12,51,8.20
2019,03,07,12,52,8.20
2019,03,07,12,53,8.20
2019,03,07,12,54,8.10
2019,03,07,12,55,8.00
2019,03,07,12,56,7.90
2019,03,07,12,57,7.90
2019,03,07,12,58,7.90
2019,03,07,12,59,7.90
2019,03,07,13,00,7.90
2019,03,07,13,01,7.90
2019,03,07,13,02,7.90
2019,03,07,13,03,7.90
2019,03,07,13,04,7.90
2019,03,07,13,05,8.00
2019,03,07,13,06,8.10
2019,03,07,13,07,8.10
2019,03,07,13,08,8.10
2019,03,07,13,09,8.10
2019,03,07,13,10,8.00
2019,03,07,13,11,7.90
2019,03,07,13,12,7.90
2019,03,07,13,13,7.90
2019,03,07,13,14,7.90
2019,03,07,13,15,7.80
2019,03,07,13,16,7.70
2019,03,07,13,17,7.70
2019,03,07,13,18,7.70
2019,03,07,13,19,7.70
2019,03,07,13,20,7.60
2019,03,07,13,21,7.70
2019,03,07,13,22,7.70
2019,03,07,13,23,7.80
2019,03,07,13,24,7.80
2019,03,07,13,25,7.90
2019,03,07,13,26,7.90
2019,03,07,13,27,8.00
2019,03,07,13,28,8.00
2019,03,07,13,29,8.00
2019,03,07,13,30,8.00
2019,03,07,13,31,8.10
2019,03,07,13,32,8.10
2019,03,07,13,33,8.20
2019,03,07,13,34,8.20
2019,03,07,13,35,8.10
2019,03,07,13,36,8.10
2019,03,07,13,37,8.10
2019,03,07,13,38,8.20
2019,03,07,13,39,8.20
2019,03,07,13,40,8.20
2019,03,07,13,41,8.20
2019,03,07,13,42,8.20
2019,03,07,13,43,8.20
2019,03,07,13,44,8.30
2019,03,07,13,45,8.30
2019,03,07,13,46,8.40
2019,03,07,13,47,8.50
2019,03,07,13,48,8.60
2019,03,07,13,49,8.60
2019,03,07,13,50,8.60
2019,03,07,13,51,8.70
2019,03,07,13,52,8.70
2019,03,07,13,53,8.80
2019,03,07,13,54,8.80
2019,03,07,13,55,8.80
2019,03,07,13,56,8.80
2019,03,07,13,57,8.70
2019,03,07,13,58,8.70
2019,03,07,13,59,8.60
2019,03,07,14,00,8.60
2019,03,07,14,01,8.50
2019,03,07,14,02,8.50
2019,03,07,14,03,8.40
2019,03,07,14,04,8.40
2019,03,07,14,05,8.30
2019,03,07,14,06,8.30
2019,03,07,14,07,8.30
2019,03,07,14,08,8.30
2019,03,07,14,09,8.30
2019,03,07,14,10,8.30
2019,03,07,14,11,8.30
2019,03,07,14,12,8.30
2019,03,07,14,13,8.30
2019,03,07,14,14,8.30
2019,03,07,14,15,8.30
2019,03,07,14,16,8.30
2019,03,07,14,17,8.30
2019,03,07,14,18,8.20
2019,03,07,14,19,8.20
2019,03,07,14,20,8.20
2019,03,07,14,21,8.20
2019,03,07,14,22,8.20
2019,03,07,14,23,8.30
2019,03,07,14,24,8.30
2019,03,07,14,25,8.40
2019,03,07,14,26,8.50
2019,03,07,14,27,8.50
2019,03,07,14,28,8.60
2019,03,07,14,29,8.60
2019,03,07,14,30,8.60
2019,03,07,14,31,8.60
2019,03,07,14,32,8.60
2019,03,07,14,33,8.70
2019,03,07,14,34,8.70
2019,03,07,14,35,8.70
2019,03,07,14,36,8.70
2019,03,07,14,37,8.70
2019,03,07,14,38,8.70
2019,03,07,14,39,8.70
2019,03,07,14,40,8.70
2019,03,07,14,41,8.60
2019,03,07,14,42,8.60
2019,03,07,14,43,8.60
2019,03,07,14,44,8.60
2019,03,07,14,45,8.60
2019,03,07,14,46,8.60
2019,03,07,14,47,8.70
2019,03,07,14,48,8.70
2019,03,07,14,49,8.80
2019,03,07,14,50,8.80
2019,03,07,14,51,8.90
2019,03,07,14,52,8.90
2019,03,07,14,53,8.90
2019,03,07,14,54,8.90
2019,03,07,14,55,8.80
2019,03,07,14,56,8.80
2019,03,07,14,57,8.70
2019,03,07,14,58,8.70
2019,03,07,14,59,8.60
2019,03,07,15,00,8.50
2019,03,07,15,01,8.40
2019,03,07,15,02,8.20
2019,03,07,15,03,8.20
2019,03,07,15,04,8.10
2019,03,07,15,05,8.10
2019,03,07,15,06,8.10
2019,03,07,15,07,8.10
2019,03,07,15,08,8.10
2019,03,07,15,09,8.10
2019,03,07,15,10,8.10
2019,03,07,15,11,8.10
2019,03,07,15,12,8.20
2019,03,07,15,13,8.20
2019,03,07,15,14,8.20
2019,03,07,15,15,8.20
2019,03,07,15,16,8.20
2019,03,07,15,17,8.20
2019,03,07,15,18,8.20
2019,03,07,15,19,8.10
2019,03,07,15,20,8.10
2019,03,07,15,21,8.10
2019,03,07,15,22,8.10
2019,03,07,15,23,8.10
2019,03,07,15,24,8.10
2019,03,07,15,25,8.10
2019,03,07,15,26,8.10
2019,03,07,15,27,8.00
2019,03,07,15,28,8.00
2019,03,07,15,29,8.00
2019,03,07,15,30,8.00
2019,03,07,15,31,8.00
2019,03,07,15,32,8.00
2019,03,07,15,33,8.00
2019,03,07,15,34,8.00
2019,03,07,15,35,8.00
2019,03,07,15,36,7.90
2019,03,07,15,37,7.90
2019,03,07,15,38,7.90
2019,03,07,15,39,7.90
2019,03,07,15,40,7.80
2019,03,07,15,41,7.70
2019,03,07,15,42,7.70
2019,03,07,15,43,7.70
2019,03,07,15,44,7.70
2019,03,07,15,45,7.60
2019,03,07,15,46,7.60
2019,03,07,15,47,7.60
2019,03,07,15,48,7.60
2019,03,07,15,49,7.50
2019,03,07,15,50,7.40
2019,03,07,15,51,7.40
2019,03,07,15,52,7.40
2019,03,07,15,53,7.40
2019,03,07,15,54,7.40
2019,03,07,15,55,7.30
2019,03,07,15,56,7.30
2019,03,07,15,57,7.20
2019,03,07,15,58,7.10
2019,03,07,15,59,7.00
2019,03,07,16,00,7.00
2019,03,07,16,01,6.90
2019,03,07,16,02,6.80
2019,03,07,16,03,6.70
2019,03,07,16,04,6.60
2019,03,07,16,05,6.50
2019,03,07,16,06,6.40
2019,03,07,16,07,6.40
2019,03,07,16,08,6.40
2019,03,07,16,09,6.40
2019,03,07,16,10,6.40
2019,03,07,16,11,6.40
2019,03,07,16,12,6.40
2019,03,07,16,13,6.40
2019,03,07,16,14,6.40
2019,03,07,16,15,6.30
2019,03,07,16,16,6.30
2019,03,07,16,17,6.30
2019,03,07,16,18,6.30
2019,03,07,16,19,6.20
2019,03,07,16,20,6.10
2019,03,07,16,21,6.10
2019,03,07,16,22,6.10
2019,03,07,16,23,6.10
2019,03,07,16,24,6.10
2019,03,07,16,25,6.10
2019,03,07,16,26,6.10
2019,03,07,16,27,6.00
2019,03,07,16,28,6.00
2019,03,07,16,29,6.00
2019,03,07,16,30,6.00
2019,03,07,16,31,6.00
2019,03,07,16,32,5.90
2019,03,07,16,33,5.90
2019,03,07,16,34,5.90
2019,03,07,16,35,5.90
2019,03,07,16,36,5.90
2019,03,07,16,37,5.90
2019,03,07,16,38,5.90
2019,03,07,16,39,5.90
2019,03,07,16,40,5.90
2019,03,07,16,41,5.90
2019,03,07,16,42,5.90
2019,03,07,16,43,5.90
2019,03,07,16,44,5.90
2019,03,07,16,45,5.90
2019,03,07,16,46,5.80
2019,03,07,16,47,5.80
2019,03,07,16,48,5.80
2019,03,07,16,49,5.80
2019,03,07,16,50,5.80
2019,03,07,16,51,5.80
2019,03,07,16,52,5.70
2019,03,07,16,53,5.70
2019,03,07,16,54,5.60
2019,03,07,16,55,5.60
2019,03,07,16,56,5.60
2019,03,07,16,57,5.50
2019,03,07,16,58,5.50
2019,03,07,16,59,5.50
2019,03,07,17,00,5.40
2019,03,07,17,01,5.40
2019,03,07,17,02,5.40
2019,03,07,17,03,5.40
2019,03,07,17,04,5.30
2019,03,07,17,05,5.30
2019,03,07,17,06,5.30
2019,03,07,17,07,5.20
2019,03,07,17,08,5.20
2019,03,07,17,09,5.20
2019,03,07,17,10,5.20
2019,03,07,17,11,5.20
2019,03,07,17,12,5.20
2019,03,07,17,13,5.20
2019,03,07,17,14,5.20
2019,03,07,17,15,5.20
2019,03,07,17,16,5.20
2019,03,07,17,17,5.20
2019,03,07,17,18,5.20
2019,03,07,17,19,5.20
2019,03,07,17,20,5.20
2019,03,07,17,21,5.20
2019,03,07,17,22,5.20
2019,03,07,17,23,5.20
2019,03,07,17,24,5.20
2019,03,07,17,25,5.20
2019,03,07,17,26,5.20
2019,03,07,17,27,5.20
2019,03,07,17,28,5.20
2019,03,07,17,29,5.20
2019,03,07,17,30,5.20
2019,03,07,17,31,5.20
2019,03,07,17,32,5.20
2019,03,07,17,33,5.10
2019,03,07,17,34,5.10
2019,03,07,17,35,5.10
2019,03,07,17,36,5.10
2019,03,07,17,37,5.00
2019,03,07,17,38,5.00
2019,03,07,17,39,5.00
2019,03,07,17,40,4.90
2019,03,07,17,41,4.90
2019,03,07,17,42,4.90
2019,03,07,17,43,4.80
2019,03,07,17,44,4.80
2019,03,07,17,45,4.70
2019,03,07,17,46,4.60
2019,03,07,17,47,4.50
2019,03,07,17,48,4.50
2019,03,07,17,49,4.40
2019,03,07,17,50,4.30
2019,03,07,17,51,4.20
2019,03,07,17,52,4.20
2019,03,07,17,53,4.10
2019,03,07,17,54,4.10
2019,03,07,17,55,4.00
2019,03,07,17,56,4.00
2019,03,07,17,57,3.90
2019,03,07,17,58,3.90
2019,03,07,17,59,3.90
2019,03,07,18,00,3.90
2019,03,07,18,01,3.90
2019,03,07,18,02,3.90
2019,03,07,18,03,3.90
2019,03,07,18,04,3.90
2019,03,07,18,05,3.90
2019,03,07,18,06,3.90